This demonstration page uses our WeatherBlox Daily Observations layout. Learn more.

Left ArrowRight Arrow

Hourly Observations for November 22, 2016

Temp ( °F °C ) Dew Point ( °F °C ) Humidity (%) Winds ( mph kmh ) Pressure ( in mb ) Visibility ( mi km ) Precip ( " mm )
12:59 am 00:59 Clear 38 3.3 18 -7.8 44 44 NNW 15 24 30.14 1021 10 16 0.00 0.00
1:59 am 01:59 Clear 37 2.8 19 -7.2 48 48 N 9 15 30.15 1021 10 16 0.00 0.00
2:59 am 02:59 Clear 37 2.8 21 -6.1 52 52 NNW 12 19 30.16 1022 10 16 0.00 0.00
3:59 am 03:59 Clear 36 2.2 21 -6.1 55 55 NNW 12 19 30.17 1022 10 16 0.00 0.00
4:59 am 04:59 Clear 35 1.7 21 -6.1 57 57 NNW 8 13 30.18 1022 10 16 0.00 0.00
5:59 am 05:59 Clear 33 0.6 20 -6.7 58 58 NW 8 13 30.20 1023 10 16 0.00 0.00
6:59 am 06:59 Sunny 32 0 20 -6.7 61 61 NW 7 11 30.22 1023 10 16 0.00 0.00
7:59 am 07:59 Mostly Sunny 38 3.3 24 -4.4 57 57 WSW 5 7 30.24 1024 10 16 0.00 0.00
8:59 am 08:59 Mostly Sunny 40 4.4 25 -3.9 55 55 WSW 6 9 30.24 1024 10 16 0.00 0.00
9:59 am 09:59 Mostly Sunny 41 5 20 -6.7 43 43 WSW 10 17 30.26 1025 10 16 0.00 0.00
10:59 am 10:59 Mostly Sunny 44 6.7 20 -6.7 38 38 W 10 17 30.25 1024 10 16 0.00 0.00
11:59 am 11:59 Mostly Sunny 48 8.9 21 -6.1 34 34 WNW 8 13 30.22 1024 10 16 0.00 0.00
12:59 pm 12:59 Mostly Sunny 52 11.1 17 -8.3 25 25 WNW 15 24 30.22 1023 10 16 0.00 0.00
1:59 pm 13:59 Mostly Sunny 53 11.7 14 -10 21 21 WNW 14 22 30.22 1023 10 16 0.00 0.00
2:59 pm 14:59 Mostly Sunny 54 12.2 12 -11.1 19 19 WNW 15 24 30.22 1024 10 16 0.00 0.00
3:59 pm 15:59 Mostly Sunny 53 11.7 14 -10 21 21 NW 12 19 30.23 1024 10 16 0.00 0.00
4:59 pm 16:59 Mostly Clear 50 10 15 -9.4 25 25 NW 10 17 30.25 1025 10 16 0.00 0.00
5:59 pm 17:59 Mostly Clear 48 8.9 18 -7.8 30 30 NW 8 13 30.27 1025 10 16 0.00 0.00
6:59 pm 18:59 Clear 45 7.2 23 -5 42 42 NNW 5 7 30.29 1026 10 16 0.00 0.00
7:59 pm 19:59 Clear 39 3.9 24 -4.4 55 55 Calm 30.30 1026 10 16 0.00 0.00
8:59 pm 20:59 Clear 38 3.3 26 -3.3 62 62 Calm 30.32 1027 10 16 0.00 0.00
9:59 pm 21:59 Clear 35 1.7 27 -2.8 72 72 Calm 30.32 1027 10 16 0.00 0.00
10:59 pm 22:59 Clear 36 2.2 25 -3.9 64 64 N 8 13 30.33 1027 10 16 0.00 0.00
11:59 pm 23:59 Clear 37 2.8 24 -4.4 59 59 NNW 7 11 30.33 1027 10 16 0.00 0.00

Powered by AerisWeather